KONTKSAN

Guest
Details From KONT - Ontario Intl
To KSAN - San Diego Intl
Flight Number -
Tags Generated
Created
Modified
Stats Distance 82 nm / 152 km
Max Altitude 0 ft / 0 m
Waypoints 2
Social Downloads 1
Likes 0
Share VATSIM

Download

Looking for another format? Having issues loading an existing format? Contact us
Advertisement - Login to hide

Notes

Generated

Route

KONT KSAN

ID Type Via Altitude Latitude Longitude Leg Dist Tot Dist Heading (true) Name
O KONT APT - 0 ft / 0 m 34.05688˚ -117.62282˚ - 0 nm - -
O KSAN APT - 0 ft / 0 m 32.73712˚ -117.20435˚ 81 nm 81 nm 165° / 165° -

Altitude Profile

Advertisement - Login to hide

KONT

Details ICAO KONT (ONT)
Name Ontario Intl
Region United States
Timezone America/Los_Angeles (UTC-7.0)
Stats Elevation 944 ft / 288 m (AMSL)
Location 34.055917° -117.600853°
Runways 2
Magnetic Variation 11.823° E

METAR

KONT 270953Z 28005KT 10SM FEW010 FEW042 12/10 A2995 RMK AO2 SLP136 T01220100

Decode

TAF

TAF AMD KONT 270656Z 2707/2812 VRB05KT P6SM FEW035 FEW050 FM271100 VRB04KT P6SM BKN020 FM272100 26011G18KT P6SM SCT020 FM280500 26007KT P6SM SCT010

Decode

Departure Runways

ID Width Length Bearing (true) Bearing (mag) Surface Threshold Offset Overrun Length
08L 151 ft / 46 m 12,279 ft / 3,743 m 89.96° 78.14° Concrete 997 ft / 304 m 400 ft / 122 m
26L 151 ft / 46 m 10,269 ft / 3,130 m 269.97° 258.15° Concrete 0 ft / 0 m 400 ft / 122 m
26R 151 ft / 46 m 12,279 ft / 3,743 m 269.99° 258.17° Concrete 0 ft / 0 m 400 ft / 122 m
8R 151 ft / 46 m 10,269 ft / 3,130 m 89.95° 78.13° Concrete 0 ft / 0 m 400 ft / 122 m

KSAN

Details ICAO KSAN (SAN)
Name San Diego Intl
Region United States
Timezone America/Los_Angeles (UTC-7.0)
Stats Elevation 17 ft / 5 m (AMSL)
Location 32.733556° -117.189658°
Runways 1
Magnetic Variation 11.487° E

METAR

KSAN 270951Z 26008KT 10SM FEW018 OVC026 16/12 A2997 RMK AO2 SLP149 T01610117

Decode

TAF

TAF KSAN 270520Z 2706/2812 23005KT P6SM BKN022 FM271900 25009KT P6SM SCT025 FM280200 VRB04KT P6SM SCT015 FM280400 VRB04KT P6SM BKN015

Decode

Destination Runways

ID Width Length Bearing (true) Bearing (mag) Surface Threshold Offset Overrun Length
09 200 ft / 61 m 9,387 ft / 2,861 m 106.07° 94.58° Asphalt 699 ft / 213 m 269 ft / 82 m
27 200 ft / 61 m 9,387 ft / 2,861 m 286.08° 274.59° Asphalt 1,811 ft / 552 m 0 ft / 0 m

Approach Navaids

Runway Type Ident Frequency Range Bearing (true) Bearing (mag) Slope Elevation
09 Localiser ISAN 111.55 MHz 18 nm / 33 km 106.08° 94.59° - 17 ft / 5 m (AMSL)
09 Glidescope ISAN 111.55 MHz 10 nm / 19 km 106.08° 94.59° 3.22° 13 ft / 4 m (AMSL)
09 DME ISAN 111.55 MHz 18 nm / 33 km - - - 29 ft / 9 m (AMSL)
27 Localiser IUBR 110.90 MHz 18 nm / 33 km 286.07° 274.58° - 13 ft / 4 m (AMSL)
27 DME IUBR 110.90 MHz 18 nm / 33 km - - - 26 ft / 8 m (AMSL)

Popular Alternatives